Starlink 11582

operational
NORAD ID: 62985 Int'l Des: 2025-031 Owner: SPXS Country: US Constellation: starlink
LEOCIRCULAR

Über Starlink 11582

Beschreibung wird geladen...

Live-Position

3D-Globus wird geladen...

Nächste Überflüge

Höhenverlauf

Altitude vs Time

uPlot chart will show altitude changes over time

Zweizeiliger Elementsatz

1 62985U 25031E 25258.52809200 .00260018 00000-0 19641-2 0 9999
2 62985 42.9963 337.3097 0000984 147.6933 212.3995 15.70876999 35191
Epoch: 15. Sept. 2025 • Age: 9 hours

Aktueller Status

Höhe 367.4 km
Geschwindigkeit 7.69 km/s
Subsatellitenpunkt -37.57°S, 38.58°W
Startdatum 11. Feb. 2025
Alter 0.5 years
Typ internet

Technische Details

Klassifizierung Payload
Masse 960.00 kg
Trockenmasse 910.00 kg
Gesamtmasse 960.00 kg
Länge 0.30 m
Durchmesser 4.10 m
Spannweite 29.00 m
Form Box + pan
Hersteller SPXS
Bus-Typ Starlink V2MD
Phasenstatus In Orbit
Besitzer/Staat SPXS/US

Große Konstellationen

Loading constellations...